This is the latest recevied weather packets stored in our database for station/object K7FRY. If no packets are shown the sender has not sent any weather packets the latest 10 day(s).
| Time | Temp. | Humidity | Pressure | Rain* | Wind** | Luminosity | Snow |
|---|---|---|---|---|---|---|---|
| 1777790437 | 23.33° C | 37% | 1015.9 hPa | 0 mm | - | 0 W/m² | - |
| 1777790134 | 23.33° C | 37% | 1015.9 hPa | 0 mm | - | 0 W/m² | - |
| 1777789833 | 23.33° C | 37% | 1016.1 hPa | 0 mm | - | 0 W/m² | - |
| 1777789531 | 22.78° C | 37% | 1015.9 hPa | 0 mm | - | 0 W/m² | - |
| 1777789229 | 23.33° C | 37% | 1015.6 hPa | 0 mm | - | 0 W/m² | - |
| 1777788925 | 23.33° C | 36% | 1015.9 hPa | 0 mm | - | 0 W/m² | - |
| 1777788621 | 23.89° C | 36% | 1015.4 hPa | 0 mm | - | 0 W/m² | - |
| 1777788316 | 23.89° C | 36% | 1015.4 hPa | 0 mm | - | 0 W/m² | - |
| 1777788012 | 23.89° C | 36% | 1015.9 hPa | 0 mm | - | 0 W/m² | - |
| 1777787708 | 23.89° C | 36% | 1015.5 hPa | 0 mm | - | 0 W/m² | - |
| 1777787403 | 23.89° C | 36% | 1015.5 hPa | 0 mm | - | 0 W/m² | - |
| 1777787099 | 23.89° C | 35% | 1015.6 hPa | 0 mm | - | 0 W/m² | - |
| 1777786797 | 23.89° C | 35% | 1015.8 hPa | 0 mm | - | 0 W/m² | - |
| 1777786495 | 23.89° C | 34% | 1015.8 hPa | 0 mm | - | 0 W/m² | - |
| 1777786191 | 23.89° C | 34% | 1015.6 hPa | 0 mm | - | 0 W/m² | - |
| 1777785889 | 23.89° C | 34% | 1015.6 hPa | 0 mm | - | 0 W/m² | - |
| 1777785585 | 23.89° C | 34% | 1015.6 hPa | 0 mm | - | 0 W/m² | - |
| 1777785281 | 24.44° C | 34% | 1015.2 hPa | 0 mm | - | 0 W/m² | - |
| 1777784978 | 24.44° C | 34% | 1015.1 hPa | 0 mm | - | 0 W/m² | - |
| 1777784674 | 24.44° C | 34% | 1015.2 hPa | 0 mm | - | 0 W/m² | - |
| 1777784372 | 24.44° C | 33% | 1015.3 hPa | 0 mm | - | 0 W/m² | - |
| 1777784069 | 23.89° C | 34% | 1015.2 hPa | 0 mm | - | 0 W/m² | - |
| 1777783766 | 23.89° C | 33% | 1015.3 hPa | 0 mm | - | 0 W/m² | - |
| 1777783462 | 24.44° C | 33% | 1015.1 hPa | 0 mm | - | 0 W/m² | - |
| 1777783160 | 24.44° C | 32% | 1015.1 hPa | 0 mm | - | 0 W/m² | - |
* Rain latest hour (hover to see other rain measurements)
** Current wind speed in m/s (hover to see current wind gust speed)